THORAD AGENA D DEB, 4748

Orbit data source: Space-Track

THORAD AGENA D DEB, 4748 is space debris in SSO originally from a launch on Wed, 08 Apr 1970 UTC launched from the Air Force Western Test Range (AFWTR). Debris objects in space refer to the collection of defunct objects orbiting the Earth. Examples of debris include non-operational satellites, rocket bodies, and fragments generated from explosions, collisions, or faulty payload assembly.

Loading next visibility...
Identifier
4748, 1970-025CW
Orbit
SSO
Country
Flag of USUS
Related business
Manufacturer
Unknown
Mission
Spacecraft
Bus & Motor
Unknown
Mass
Unknown
Launch date (UTC)
1970-04-08 (56 years ago)
Launch vehicle
Unknown
Launch site
Air Force Western Test Range (AFWTR)
Object type
Payload
Rocket body
Debris
Shape & HBR
Unknown shape, 0.2 m
Radar Cross Section
Small (<0.1 m²)

Expand to show TLE details & history
Last TLE update: 7 hours ago

TLE from 7 hours ago
0 THORAD AGENA D DEB
1  4748U 70025CW  26132.77099883  .00000276  00000-0  40399-3 0  9995
2  4748 100.1240 309.0777 0005825 198.9224 161.1701 13.64503447778120
Epoch: 2026-05-12T18:30Z
TLE epoch observation values (Epoch: 2026-05-12T18:30:14.298Z)
Latitude
-0.00007°
Longitude
160.97754°
Altitude
1,026.24 km
Speed
7.337 km/s
True Right ascension
20h 36m 18s
True Declination
0° 00' 00"
Sunlit
Object was in daylight at epoch
Visualization orbit readout
Latitude
Unknown
Longitude
Unknown
Altitude
Unknown
Speed
Unknown
Apparent Right ascension
Unknown
Apparent Declination
Unknown
Sunlit
N/A
Visualization observer readout
Local Sidereal Time
10:11:52
Azimuth
Unknown
Elevation
Unknown
Doppler factor
Unknown
Orbital elements
Apogee altitude
1,020.982 km
Perigee altitude
1,012.367 km
Semi-major axis
7,394.812 km
Eccentricity
0.00058
Inclination
100.124°
RAAN
309.0777°
Arg. of periapsis
198.9224°
True anomaly
161.19163°
Mean anomaly
161.1701°
Eccentric anomaly
161.18087°
Mean motion
3.41313 °/min
Orbital period
105.48 mins
BSTAR
0.00040399
Loading maneuver chart data...
Computing Atmospheric mass density...

Documentation

Showing up to 5 results
|